FW8874 Weather Reports


Display with metric or nautical units.
time (UTC)temp
F
wind
direction
speed
MPH
gust
MPH
rain 1hr
in
rain 24hr
in
rain mn
in
humidity
%
barometer
mb
20260507203032 49 146 2.0 4.0 0.00 0.00 0.00 76 1016.5
20260507201532 50 152 1.0 2.0 0.00 0.00 0.00 75 1016.4
20260507200034 50 155 1.0 3.0 0.00 0.00 0.00 74 1016.2
20260507194546 51 150 2.0 3.0 0.00 0.00 0.00 72 1016.0
20260507193031 51 163 1.0 2.0 0.00 0.00 0.00 71 1015.9
20260507191532 52 178 1.0 2.0 0.00 0.00 0.00 71 1015.6
20260507190042 53 160 1.0 2.0 0.00 0.00 0.00 71 1015.5
20260507184541 54 152 1.0 4.0 0.00 0.00 0.00 70 1015.5
20260507183030 54 167 2.0 4.0 0.00 0.00 0.00 70 1015.6
20260507181531 54 156 2.0 5.0 0.00 0.00 0.00 70 1015.5
20260507180032 54 167 2.0 5.0 0.00 0.00 0.00 72 1015.5
20260507174535 54 192 3.0 7.0 0.00 0.00 0.00 73 1015.3
20260507173043 54 179 3.0 7.0 0.00 0.00 0.00 71 1015.4
20260507171530 54 151 3.0 6.0 0.00 0.00 0.00 71 1015.5
20260507170031 54 202 2.0 6.0 0.00 0.00 0.00 73 1015.5
20260507164544 54 164 2.0 6.0 0.00 0.00 0.00 73 1015.5
20260507163031 54 143 3.0 8.0 0.00 0.00 0.00 72 1015.5
20260507161546 55 203 2.0 7.0 0.00 0.00 0.00 72 1015.5
20260507160030 55 162 3.0 9.0 0.00 0.00 0.00 72 1015.6
20260507154532 55 200 4.0 8.0 0.00 0.00 0.00 71 1015.6
20260507153036 56 157 2.0 5.0 0.00 0.00 0.00 69 1015.8
20260507151536 56 116 3.0 8.0 0.00 0.00 0.00 68 1015.7
20260507150036 57 193 2.0 10.0 0.00 0.00 0.00 63 1015.6
20260507144536 57 152 3.0 9.0 0.00 0.00 0.00 64 1015.8
20260507143036 57 161 5.0 8.0 0.00 0.00 0.00 67 1015.8
20260507141534 57 202 3.0 6.0 0.00 0.00 0.00 68 1015.8
20260507140030 56 180 3.0 6.0 0.00 0.00 0.00 71 1015.8
20260507134531 55 203 3.0 6.0 0.00 0.00 0.00 73 1015.9
20260507133031 54 189 4.0 7.0 0.00 0.00 0.00 73 1015.9
20260507131530 55 215 4.0 9.0 0.00 0.00 0.00 73 1016.0
20260507130038 56 198 4.0 7.0 0.00 0.00 0.00 71 1016.0
20260507124538 56 221 2.0 5.0 0.00 0.00 0.00 68 1016.0
20260507123032 57 214 1.0 3.0 0.00 0.00 0.00 60 1016.1
20260507121531 57 0 0.0 3.0 0.00 0.00 0.00 51 1016.0
20260507120032 58 342 1.0 5.0 0.00 0.00 0.00 50 1016.0
20260507114554 59 119 0.0 4.0 0.00 0.00 0.00 50 1016.0
20260507113057 57 287 0.0 2.0 0.00 0.00 0.00 55 1016.1
20260507111538 57 174 0.0 1.0 0.00 0.00 0.00 51 1016.0
20260507110032 57 21 0.0 5.0 0.00 0.00 0.00 54 1016.2
20260507104539 57 279 0.0 3.0 0.00 0.00 0.00 55 1016.2
20260507103031 58 232 0.0 2.0 0.00 0.00 0.00 55 1016.2
20260507101532 56 0 0.0 2.0 0.00 0.00 0.00 58 1016.3
20260507100030 55 218 0.0 3.0 0.00 0.00 0.00 61 1016.3
20260507094533 56 214 0.0 3.0 0.00 0.00 0.00 66 1016.3
20260507093034 55 146 2.0 4.0 0.00 0.00 0.00 65 1016.2
20260507091536 55 205 1.0 7.0 0.00 0.00 0.00 67 1016.3
20260507090032 55 120 1.0 5.0 0.00 0.00 0.00 71 1016.3
20260507084540 54 0 0.0 4.0 0.00 0.00 0.00 74 1016.3
20260507083030 52 0 1.0 3.0 0.00 0.00 0.00 76 1016.3
20260507081536 52 0 0.0 3.0 0.00 0.00 0.00 80 1016.4
20260507080030 51 115 0.0 4.0 0.00 0.00 0.00 83 1016.4
20260507074532 50 0 1.0 3.0 0.00 0.00 0.00 85 1016.2
20260507073034 49 0 0.0 3.0 0.00 0.00 0.00 87 1016.1
20260507071530 48 0 0.0 2.0 0.00 0.00 0.00 88 1016.2
20260507070030 47 0 0.0 2.0 0.00 0.00 0.00 90 1016.1
20260507064534 46 0 0.0 1.0 0.00 0.00 0.00 91 1016.1
20260507063029 45 0 0.0 3.0 0.00 0.00 0.00 92 1016.1
20260507061531 44 0 0.0 0.0 0.00 0.00 0.00 92 1016.0
20260507060033 42 0 0.0 0.0 0.00 0.00 0.00 92 1016.0
20260507054531 40 0 0.0 0.0 0.00 0.00 0.00 92 1016.0
20260507053031 39 0 0.0 0.0 0.00 0.00 0.00 93 1015.8
20260507051533 38 0 0.0 0.0 0.00 0.00 0.00 92 1015.8
20260507050031 37 0 0.0 0.0 0.00 0.00 0.00 93 1015.7
20260507044532 37 0 0.0 0.0 0.00 0.00 0.00 93 1015.6
20260507043038 37 0 0.0 0.0 0.00 0.00 0.00 94 1015.6
20260507041530 36 0 0.0 0.0 0.00 0.00 0.00 92 1015.6
20260507040032 37 0 0.0 0.0 0.00 0.00 0.00 92 1015.7
20260507034535 38 0 0.0 0.0 0.00 0.00 0.00 93 1015.7
20260507033034 38 0 0.0 0.0 0.00 0.00 0.00 93 1015.7
20260507031529 37 0 0.0 0.0 0.00 0.00 0.00 92 1015.7
20260507030030 37 0 0.0 0.0 0.00 0.00 0.00 90 1015.8
20260507024532 38 0 0.0 0.0 0.00 0.00 0.00 90 1015.5
20260507023030 39 0 0.0 0.0 0.00 0.00 0.00 91 1015.5
20260507021530 40 0 0.0 0.0 0.00 0.00 0.00 90 1015.5
20260507020045 40 0 0.0 0.0 0.00 0.00 0.00 90 1015.4
20260507014534 40 0 0.0 0.0 0.00 0.00 0.00 89 1015.4
20260507013029 41 0 0.0 0.0 0.00 0.00 0.00 89 1015.4
20260507011541 40 0 0.0 0.0 0.00 0.00 0.00 89 1015.4
20260507010034 41 0 0.0 0.0 0.00 0.00 0.00 88 1015.4
20260507004531 41 0 0.0 0.0 0.00 0.00 0.00 88 1015.4
20260507003030 41 0 0.0 0.0 0.00 0.00 0.00 87 1015.4
20260507001602 41 0 0.0 0.0 0.00 0.00 0.00 87 1015.4
20260507000040 40 0 0.0 0.0 0.00 0.00 0.00 84 1015.4
20260506234531 42 0 0.0 0.0 0.00 0.00 0.00 83 1015.4
20260506233030 43 0 0.0 0.0 0.00 0.00 0.00 83 1015.4
20260506231531 42 0 0.0 0.0 0.00 0.00 0.00 82 1015.2
20260506230049 43 0 0.0 0.0 0.00 0.00 0.00 81 1015.3
20260506224530 44 0 0.0 0.0 0.00 0.00 0.00 79 1015.2
20260506223032 45 0 0.0 0.0 0.00 0.00 0.00 77 1015.1
20260506221530 45 0 0.0 0.0 0.00 0.00 0.00 76 1015.1
20260506220035 46 0 0.0 1.0 0.00 0.00 0.00 76 1014.9
20260506214529 46 0 0.0 0.0 0.00 0.00 0.00 75 1014.9
20260506213033 47 0 0.0 1.0 0.00 0.00 0.00 73 1015.0
20260506211530 47 0 0.0 2.0 0.00 0.00 0.00 72 1015.0
20260506210047 48 0 0.0 2.0 0.00 0.00 0.00 71 1014.8
20260506204530 49 30 0.0 2.0 0.00 0.00 0.00 70 1014.7